owner,sensor,date,latitude,longitude,sea_surface_height_above_sea_level,qcFlag 
TCOON,ioos:station:TCOON:009:1,2014-10-01T00:18:00Z,27.8398,-97.0727,1.914,1111122 
TCOON,ioos:station:TCOON:009:1,2014-10-01T01:12:00Z,27.8398,-97.0727,1.937,1111122 
TCOON,ioos:station:TCOON:009:1,2014-10-01T02:18:00Z,27.8398,-97.0727,1.962,1111122 
TCOON,ioos:station:TCOON:009:1,2014-10-01T03:12:00Z,27.8398,-97.0727,1.98,1111122 
TCOON,ioos:station:TCOON:009:1,2014-10-01T04:12:00Z,27.8398,-97.0727,2.01,1111122 
TCOON,ioos:station:TCOON:009:1,2014-10-01T05:12:00Z,27.8398,-97.0727,2.0,1111122 
TCOON,ioos:station:TCOON:009:1,2014-10-01T07:00:00Z,27.8398,-97.0727,2.021,1111122 
TCOON,ioos:station:TCOON:009:1,2014-10-01T07:12:00Z,27.8398,-97.0727,2.024,1111122 
TCOON,ioos:station:TCOON:009:1,2014-10-01T08:12:00Z,27.8398,-97.0727,2.033,1111122 
TCOON,ioos:station:TCOON:009:1,2014-10-01T09:12:00Z,27.8398,-97.0727,2.026,1111122 
TCOON,ioos:station:TCOON:009:1,2014-10-01T10:12:00Z,27.8398,-97.0727,2.018,1111122 
TCOON,ioos:station:TCOON:009:1,2014-10-01T11:12:00Z,27.8398,-97.0727,2.003,1111122 
TCOON,ioos:station:TCOON:009:1,2014-10-01T12:18:00Z,27.8398,-97.0727,1.983,1111122 
TCOON,ioos:station:TCOON:009:1,2014-10-01T13:12:00Z,27.8398,-97.0727,1.969,1111122 
TCOON,ioos:station:TCOON:009:1,2014-10-01T14:12:00Z,27.8398,-97.0727,1.939,1111122 
TCOON,ioos:station:TCOON:009:1,2014-10-01T15:12:00Z,27.8398,-97.0727,1.915,1111122 
TCOON,ioos:station:TCOON:009:1,2014-10-01T16:18:00Z,27.8398,-97.0727,1.744,1111122 
TCOON,ioos:station:TCOON:009:1,2014-10-01T17:12:00Z,27.8398,-97.0727,1.792,1111122 
TCOON,ioos:station:TCOON:009:1,2014-10-01T18:12:00Z,27.8398,-97.0727,1.758,1111122 
TCOON,ioos:station:TCOON:009:1,2014-10-01T19:18:00Z,27.8398,-97.0727,1.712,1111122 
TCOON,ioos:station:TCOON:009:1,2014-10-01T20:18:00Z,27.8398,-97.0727,1.721,1111122 
TCOON,ioos:station:TCOON:009:1,2014-10-01T21:12:00Z,27.8398,-97.0727,1.734,1111122 
TCOON,ioos:station:TCOON:009:1,2014-10-01T22:18:00Z,27.8398,-97.0727,1.753,1111122 
TCOON,ioos:station:TCOON:009:1,2014-10-01T23:12:00Z,27.8398,-97.0727,1.791,1111122 
TCOON,ioos:station:TCOON:009:1,2014-10-02T00:12:00Z,27.8398,-97.0727,1.82,1111122 
TCOON,ioos:station:TCOON:009:1,2014-10-02T02:42:00Z,27.8398,-97.0727,1.937,1111122 
TCOON,ioos:station:TCOON:009:1,2014-10-02T03:12:00Z,27.8398,-97.0727,1.955,1111122 
TCOON,ioos:station:TCOON:009:1,2014-10-02T04:12:00Z,27.8398,-97.0727,1.964,1111122 
TCOON,ioos:station:TCOON:009:1,2014-10-02T05:12:00Z,27.8398,-97.0727,1.953,1111122 
TCOON,ioos:station:TCOON:009:1,2014-10-02T06:18:00Z,27.8398,-97.0727,2.001,1111122 
TCOON,ioos:station:TCOON:009:1,2014-10-02T07:12:00Z,27.8398,-97.0727,2.001,1111122 
TCOON,ioos:station:TCOON:009:1,2014-10-02T08:12:00Z,27.8398,-97.0727,1.99,1111122 
TCOON,ioos:station:TCOON:009:1,2014-10-02T09:12:00Z,27.8398,-97.0727,1.96,1111122 
TCOON,ioos:station:TCOON:009:1,2014-10-02T10:12:00Z,27.8398,-97.0727,1.978,1111122 
TCOON,ioos:station:TCOON:009:1,2014-10-02T11:12:00Z,27.8398,-97.0727,1.971,1111122 
TCOON,ioos:station:TCOON:009:1,2014-10-02T12:12:00Z,27.8398,-97.0727,1.955,1111122 
TCOON,ioos:station:TCOON:009:1,2014-10-02T13:12:00Z,27.8398,-97.0727,1.861,1111122 
TCOON,ioos:station:TCOON:009:1,2014-10-02T14:12:00Z,27.8398,-97.0727,1.938,1111122 
TCOON,ioos:station:TCOON:009:1,2014-10-02T15:18:00Z,27.8398,-97.0727,1.891,1111122 
TCOON,ioos:station:TCOON:009:1,2014-10-02T16:18:00Z,27.8398,-97.0727,1.852,1111122 
TCOON,ioos:station:TCOON:009:1,2014-10-02T17:12:00Z,27.8398,-97.0727,1.777,1111122 
TCOON,ioos:station:TCOON:009:1,2014-10-02T18:18:00Z,27.8398,-97.0727,1.745,1111122 
TCOON,ioos:station:TCOON:009:1,2014-10-02T19:12:00Z,27.8398,-97.0727,1.661,1111122 
TCOON,ioos:station:TCOON:009:1,2014-10-02T20:18:00Z,27.8398,-97.0727,1.66,1111122 
TCOON,ioos:station:TCOON:009:1,2014-10-02T21:12:00Z,27.8398,-97.0727,1.639,1111122 
TCOON,ioos:station:TCOON:009:1,2014-10-02T22:12:00Z,27.8398,-97.0727,1.66,1111122 
TCOON,ioos:station:TCOON:009:1,2014-10-02T23:12:00Z,27.8398,-97.0727,1.655,1111122 
TCOON,ioos:station:TCOON:009:1,2014-10-03T00:12:00Z,27.8398,-97.0727,1.687,1111122 
TCOON,ioos:station:TCOON:009:1,2014-10-03T01:12:00Z,27.8398,-97.0727,1.745,1111122 
TCOON,ioos:station:TCOON:009:1,2014-10-03T02:12:00Z,27.8398,-97.0727,1.801,1111122 
TCOON,ioos:station:TCOON:009:1,2014-10-03T03:12:00Z,27.8398,-97.0727,1.851,1111122 
TCOON,ioos:station:TCOON:009:1,2014-10-03T04:12:00Z,27.8398,-97.0727,1.88,1111122 
TCOON,ioos:station:TCOON:009:1,2014-10-03T05:12:00Z,27.8398,-97.0727,1.884,1111122 
TCOON,ioos:station:TCOON:009:1,2014-10-03T06:18:00Z,27.8398,-97.0727,1.897,1111122 
TCOON,ioos:station:TCOON:009:1,2014-10-03T07:12:00Z,27.8398,-97.0727,1.886,1111122 
TCOON,ioos:station:TCOON:009:1,2014-10-03T08:12:00Z,27.8398,-97.0727,1.884,1111122 
TCOON,ioos:station:TCOON:009:1,2014-10-03T09:12:00Z,27.8398,-97.0727,1.903,1111122 
TCOON,ioos:station:TCOON:009:1,2014-10-03T10:12:00Z,27.8398,-97.0727,1.948,1111122 
TCOON,ioos:station:TCOON:009:1,2014-10-03T11:12:00Z,27.8398,-97.0727,1.862,1111122 
TCOON,ioos:station:TCOON:009:1,2014-10-03T12:12:00Z,27.8398,-97.0727,1.834,1111122 
TCOON,ioos:station:TCOON:009:1,2014-10-03T13:12:00Z,27.8398,-97.0727,1.825,1111122 
TCOON,ioos:station:TCOON:009:1,2014-10-03T14:12:00Z,27.8398,-97.0727,1.855,1111122 
TCOON,ioos:station:TCOON:009:1,2014-10-03T15:12:00Z,27.8398,-97.0727,1.876,1111122 
TCOON,ioos:station:TCOON:009:1,2014-10-03T16:12:00Z,27.8398,-97.0727,1.863,1111122 
TCOON,ioos:station:TCOON:009:1,2014-10-03T17:12:00Z,27.8398,-97.0727,1.787,1111122 
TCOON,ioos:station:TCOON:009:1,2014-10-03T18:18:00Z,27.8398,-97.0727,1.677,1111122 
TCOON,ioos:station:TCOON:009:1,2014-10-03T19:12:00Z,27.8398,-97.0727,1.657,1111122 
TCOON,ioos:station:TCOON:009:1,2014-10-03T20:12:00Z,27.8398,-97.0727,1.666,1111122 
TCOON,ioos:station:TCOON:009:1,2014-10-03T21:12:00Z,27.8398,-97.0727,1.688,1111122 
TCOON,ioos:station:TCOON:009:1,2014-10-03T22:12:00Z,27.8398,-97.0727,1.632,1111122 
TCOON,ioos:station:TCOON:009:1,2014-10-03T23:12:00Z,27.8398,-97.0727,1.564,1111122 
TCOON,ioos:station:TCOON:009:1,2014-10-04T00:12:00Z,27.8398,-97.0727,1.622,1111122 
TCOON,ioos:station:TCOON:009:1,2014-10-04T01:12:00Z,27.8398,-97.0727,1.7,1111122 
TCOON,ioos:station:TCOON:009:1,2014-10-04T02:12:00Z,27.8398,-97.0727,1.712,1111122 
TCOON,ioos:station:TCOON:009:1,2014-10-04T03:12:00Z,27.8398,-97.0727,1.705,1111122 
TCOON,ioos:station:TCOON:009:1,2014-10-04T04:12:00Z,27.8398,-97.0727,1.816,1111122 
TCOON,ioos:station:TCOON:009:1,2014-10-04T05:30:00Z,27.8398,-97.0727,1.859,1111122 
TCOON,ioos:station:TCOON:009:1,2014-10-04T06:12:00Z,27.8398,-97.0727,1.844,1111122 
TCOON,ioos:station:TCOON:009:1,2014-10-04T07:12:00Z,27.8398,-97.0727,1.861,1111122 
TCOON,ioos:station:TCOON:009:1,2014-10-04T08:12:00Z,27.8398,-97.0727,1.834,1111122 
TCOON,ioos:station:TCOON:009:1,2014-10-04T09:12:00Z,27.8398,-97.0727,1.857,1111122 
TCOON,ioos:station:TCOON:009:1,2014-10-04T10:12:00Z,27.8398,-97.0727,1.866,1111122 
TCOON,ioos:station:TCOON:009:1,2014-10-04T11:12:00Z,27.8398,-97.0727,1.878,1111122 
TCOON,ioos:station:TCOON:009:1,2014-10-04T12:12:00Z,27.8398,-97.0727,1.872,1111122 
TCOON,ioos:station:TCOON:009:1,2014-10-04T13:12:00Z,27.8398,-97.0727,1.888,1111122 
TCOON,ioos:station:TCOON:009:1,2014-10-04T14:12:00Z,27.8398,-97.0727,1.883,1111122 
TCOON,ioos:station:TCOON:009:1,2014-10-04T15:12:00Z,27.8398,-97.0727,1.954,1111122 
TCOON,ioos:station:TCOON:009:1,2014-10-04T16:12:00Z,27.8398,-97.0727,1.943,1111122 
TCOON,ioos:station:TCOON:009:1,2014-10-04T17:12:00Z,27.8398,-97.0727,1.915,1111122 
TCOON,ioos:station:TCOON:009:1,2014-10-04T18:12:00Z,27.8398,-97.0727,1.898,1111122 
TCOON,ioos:station:TCOON:009:1,2014-10-04T19:12:00Z,27.8398,-97.0727,1.846,1111122 
TCOON,ioos:station:TCOON:009:1,2014-10-04T20:12:00Z,27.8398,-97.0727,1.778,1111122 
TCOON,ioos:station:TCOON:009:1,2014-10-04T21:12:00Z,27.8398,-97.0727,1.772,1111122 
TCOON,ioos:station:TCOON:009:1,2014-10-04T22:12:00Z,27.8398,-97.0727,1.794,1111122 
TCOON,ioos:station:TCOON:009:1,2014-10-04T23:12:00Z,27.8398,-97.0727,1.744,1111122 
TCOON,ioos:station:TCOON:009:1,2014-10-05T00:12:00Z,27.8398,-97.0727,1.69,1111122 
TCOON,ioos:station:TCOON:009:1,2014-10-05T01:12:00Z,27.8398,-97.0727,1.552,1111122 
TCOON,ioos:station:TCOON:009:1,2014-10-05T02:12:00Z,27.8398,-97.0727,1.766,1111122 
TCOON,ioos:station:TCOON:009:1,2014-10-05T03:12:00Z,27.8398,-97.0727,1.828,1111122 
TCOON,ioos:station:TCOON:009:1,2014-10-05T04:18:00Z,27.8398,-97.0727,1.885,1111122 
TCOON,ioos:station:TCOON:009:1,2014-10-05T05:12:00Z,27.8398,-97.0727,1.915,1111122 
TCOON,ioos:station:TCOON:009:1,2014-10-05T06:54:00Z,27.8398,-97.0727,1.952,1111122 
TCOON,ioos:station:TCOON:009:1,2014-10-05T07:12:00Z,27.8398,-97.0727,1.953,1111122 
TCOON,ioos:station:TCOON:009:1,2014-10-05T08:12:00Z,27.8398,-97.0727,1.957,1111122 
TCOON,ioos:station:TCOON:009:1,2014-10-05T09:12:00Z,27.8398,-97.0727,1.941,1111122 
TCOON,ioos:station:TCOON:009:1,2014-10-05T10:12:00Z,27.8398,-97.0727,1.934,1111122 
TCOON,ioos:station:TCOON:009:1,2014-10-05T11:12:00Z,27.8398,-97.0727,1.918,1111122 
TCOON,ioos:station:TCOON:009:1,2014-10-05T12:12:00Z,27.8398,-97.0727,1.915,1111122 
TCOON,ioos:station:TCOON:009:1,2014-10-05T13:12:00Z,27.8398,-97.0727,1.924,1111122 
TCOON,ioos:station:TCOON:009:1,2014-10-05T14:12:00Z,27.8398,-97.0727,1.93,1111122 
TCOON,ioos:station:TCOON:009:1,2014-10-05T15:12:00Z,27.8398,-97.0727,1.945,1111122 
TCOON,ioos:station:TCOON:009:1,2014-10-05T16:12:00Z,27.8398,-97.0727,1.973,1111122 
TCOON,ioos:station:TCOON:009:1,2014-10-05T17:12:00Z,27.8398,-97.0727,1.967,1111122 
TCOON,ioos:station:TCOON:009:1,2014-10-05T18:12:00Z,27.8398,-97.0727,1.981,1111122 
TCOON,ioos:station:TCOON:009:1,2014-10-05T19:12:00Z,27.8398,-97.0727,1.964,1111122 
TCOON,ioos:station:TCOON:009:1,2014-10-05T20:18:00Z,27.8398,-97.0727,1.892,1111122 
TCOON,ioos:station:TCOON:009:1,2014-10-05T21:12:00Z,27.8398,-97.0727,1.847,1111122 
TCOON,ioos:station:TCOON:009:1,2014-10-05T22:12:00Z,27.8398,-97.0727,1.828,1111122 
TCOON,ioos:station:TCOON:009:1,2014-10-05T23:12:00Z,27.8398,-97.0727,1.789,1111122 
TCOON,ioos:station:TCOON:009:1,2014-10-06T00:12:00Z,27.8398,-97.0727,1.749,1111122 
TCOON,ioos:station:TCOON:009:1,2014-10-06T01:12:00Z,27.8398,-97.0727,1.725,1111122 
TCOON,ioos:station:TCOON:009:1,2014-10-06T02:18:00Z,27.8398,-97.0727,1.757,1111122 
TCOON,ioos:station:TCOON:009:1,2014-10-06T03:12:00Z,27.8398,-97.0727,1.817,1111122 
TCOON,ioos:station:TCOON:009:1,2014-10-06T04:18:00Z,27.8398,-97.0727,1.838,1111122 
TCOON,ioos:station:TCOON:009:1,2014-10-06T05:12:00Z,27.8398,-97.0727,1.889,1111122 
TCOON,ioos:station:TCOON:009:1,2014-10-06T06:12:00Z,27.8398,-97.0727,1.949,1111122 
TCOON,ioos:station:TCOON:009:1,2014-10-06T07:12:00Z,27.8398,-97.0727,1.95,1111122 
TCOON,ioos:station:TCOON:009:1,2014-10-06T08:12:00Z,27.8398,-97.0727,1.947,1111122 
TCOON,ioos:station:TCOON:009:1,2014-10-06T09:12:00Z,27.8398,-97.0727,1.935,1111122 
TCOON,ioos:station:TCOON:009:1,2014-10-06T10:12:00Z,27.8398,-97.0727,1.906,1111122 
TCOON,ioos:station:TCOON:009:1,2014-10-06T11:12:00Z,27.8398,-97.0727,1.894,1111122 
TCOON,ioos:station:TCOON:009:1,2014-10-06T12:12:00Z,27.8398,-97.0727,1.898,1111122 
TCOON,ioos:station:TCOON:009:1,2014-10-06T13:12:00Z,27.8398,-97.0727,1.828,1111122 
TCOON,ioos:station:TCOON:009:1,2014-10-06T14:12:00Z,27.8398,-97.0727,1.916,1111122 
TCOON,ioos:station:TCOON:009:1,2014-10-06T15:12:00Z,27.8398,-97.0727,1.931,1111122 
TCOON,ioos:station:TCOON:009:1,2014-10-06T16:12:00Z,27.8398,-97.0727,1.952,1111122 
TCOON,ioos:station:TCOON:009:1,2014-10-06T17:12:00Z,27.8398,-97.0727,1.982,1111122 
TCOON,ioos:station:TCOON:009:1,2014-10-06T18:18:00Z,27.8398,-97.0727,2.001,1111122 
TCOON,ioos:station:TCOON:009:1,2014-10-06T19:12:00Z,27.8398,-97.0727,1.979,1111122 
TCOON,ioos:station:TCOON:009:1,2014-10-06T20:12:00Z,27.8398,-97.0727,1.989,1111122 
TCOON,ioos:station:TCOON:009:1,2014-10-06T21:12:00Z,27.8398,-97.0727,1.974,1111122 
TCOON,ioos:station:TCOON:009:1,2014-10-06T22:18:00Z,27.8398,-97.0727,1.944,1111122 
TCOON,ioos:station:TCOON:009:1,2014-10-06T23:18:00Z,27.8398,-97.0727,1.92,1111122 
TCOON,ioos:station:TCOON:009:1,2014-10-07T00:12:00Z,27.8398,-97.0727,1.835,1111122 
TCOON,ioos:station:TCOON:009:1,2014-10-07T01:12:00Z,27.8398,-97.0727,1.83,1111122 
TCOON,ioos:station:TCOON:009:1,2014-10-07T02:12:00Z,27.8398,-97.0727,1.782,1111122 
TCOON,ioos:station:TCOON:009:1,2014-10-07T03:12:00Z,27.8398,-97.0727,1.84,1111122 
TCOON,ioos:station:TCOON:009:1,2014-10-07T04:18:00Z,27.8398,-97.0727,1.915,1111122 
TCOON,ioos:station:TCOON:009:1,2014-10-07T05:12:00Z,27.8398,-97.0727,1.834,1111122 
TCOON,ioos:station:TCOON:009:1,2014-10-07T06:18:00Z,27.8398,-97.0727,1.947,1111122 
TCOON,ioos:station:TCOON:009:1,2014-10-07T07:12:00Z,27.8398,-97.0727,1.95,1111122 
TCOON,ioos:station:TCOON:009:1,2014-10-07T08:12:00Z,27.8398,-97.0727,1.965,1111122 
TCOON,ioos:station:TCOON:009:1,2014-10-07T09:12:00Z,27.8398,-97.0727,1.919,1111122 
TCOON,ioos:station:TCOON:009:1,2014-10-07T10:12:00Z,27.8398,-97.0727,1.895,1111122 
TCOON,ioos:station:TCOON:009:1,2014-10-07T11:12:00Z,27.8398,-97.0727,1.822,1111122 
TCOON,ioos:station:TCOON:009:1,2014-10-07T12:18:00Z,27.8398,-97.0727,1.773,1111122 
TCOON,ioos:station:TCOON:009:1,2014-10-07T13:12:00Z,27.8398,-97.0727,1.774,1111122 
TCOON,ioos:station:TCOON:009:1,2014-10-07T14:12:00Z,27.8398,-97.0727,1.82,1111122 
TCOON,ioos:station:TCOON:009:1,2014-10-07T15:18:00Z,27.8398,-97.0727,1.769,1111122 
TCOON,ioos:station:TCOON:009:1,2014-10-07T16:18:00Z,27.8398,-97.0727,1.786,1111122 
TCOON,ioos:station:TCOON:009:1,2014-10-07T17:12:00Z,27.8398,-97.0727,1.874,1111122 
TCOON,ioos:station:TCOON:009:1,2014-10-07T18:18:00Z,27.8398,-97.0727,1.913,1111122 
TCOON,ioos:station:TCOON:009:1,2014-10-07T19:18:00Z,27.8398,-97.0727,1.922,1111122 
TCOON,ioos:station:TCOON:009:1,2014-10-07T20:12:00Z,27.8398,-97.0727,1.908,1111122 
TCOON,ioos:station:TCOON:009:1,2014-10-07T21:12:00Z,27.8398,-97.0727,1.884,1111122 
TCOON,ioos:station:TCOON:009:1,2014-10-07T22:18:00Z,27.8398,-97.0727,1.894,1111122 
TCOON,ioos:station:TCOON:009:1,2014-10-07T23:12:00Z,27.8398,-97.0727,1.845,1111122 
TCOON,ioos:station:TCOON:009:1,2014-10-08T00:12:00Z,27.8398,-97.0727,1.805,1111122 
TCOON,ioos:station:TCOON:009:1,2014-10-08T01:18:00Z,27.8398,-97.0727,1.776,1111122 
TCOON,ioos:station:TCOON:009:1,2014-10-08T02:12:00Z,27.8398,-97.0727,1.712,1111122 
TCOON,ioos:station:TCOON:009:1,2014-10-08T03:12:00Z,27.8398,-97.0727,1.726,1111122 
TCOON,ioos:station:TCOON:009:1,2014-10-08T04:12:00Z,27.8398,-97.0727,1.643,1111122 
TCOON,ioos:station:TCOON:009:1,2014-10-08T05:12:00Z,27.8398,-97.0727,1.768,1111122 
TCOON,ioos:station:TCOON:009:1,2014-10-08T06:54:00Z,27.8398,-97.0727,1.815,1111122 
TCOON,ioos:station:TCOON:009:1,2014-10-08T07:12:00Z,27.8398,-97.0727,1.814,1111122 
TCOON,ioos:station:TCOON:009:1,2014-10-08T08:12:00Z,27.8398,-97.0727,1.807,1111122 
TCOON,ioos:station:TCOON:009:1,2014-10-08T09:12:00Z,27.8398,-97.0727,1.788,1111122 
TCOON,ioos:station:TCOON:009:1,2014-10-08T10:12:00Z,27.8398,-97.0727,1.727,1111122 
TCOON,ioos:station:TCOON:009:1,2014-10-08T11:12:00Z,27.8398,-97.0727,1.693,1111122 
TCOON,ioos:station:TCOON:009:1,2014-10-08T12:12:00Z,27.8398,-97.0727,1.635,1111122 
TCOON,ioos:station:TCOON:009:1,2014-10-08T13:12:00Z,27.8398,-97.0727,1.649,1111122 
TCOON,ioos:station:TCOON:009:1,2014-10-08T14:12:00Z,27.8398,-97.0727,1.629,1111122 
TCOON,ioos:station:TCOON:009:1,2014-10-08T15:12:00Z,27.8398,-97.0727,1.624,1111122 
TCOON,ioos:station:TCOON:009:1,2014-10-08T16:18:00Z,27.8398,-97.0727,1.665,1111122 
TCOON,ioos:station:TCOON:009:1,2014-10-08T17:12:00Z,27.8398,-97.0727,1.717,1111122 
TCOON,ioos:station:TCOON:009:1,2014-10-08T18:12:00Z,27.8398,-97.0727,1.79,1111122 
TCOON,ioos:station:TCOON:009:1,2014-10-08T19:12:00Z,27.8398,-97.0727,1.795,1111122 
TCOON,ioos:station:TCOON:009:1,2014-10-08T20:12:00Z,27.8398,-97.0727,1.833,1111122 
TCOON,ioos:station:TCOON:009:1,2014-10-08T21:12:00Z,27.8398,-97.0727,1.837,1111122 
TCOON,ioos:station:TCOON:009:1,2014-10-08T22:18:00Z,27.8398,-97.0727,1.841,1111122 
TCOON,ioos:station:TCOON:009:1,2014-10-08T23:12:00Z,27.8398,-97.0727,1.867,1111122 
TCOON,ioos:station:TCOON:009:1,2014-10-09T00:18:00Z,27.8398,-97.0727,1.808,1111122 
TCOON,ioos:station:TCOON:009:1,2014-10-09T01:18:00Z,27.8398,-97.0727,1.824,1111122 
TCOON,ioos:station:TCOON:009:1,2014-10-09T02:12:00Z,27.8398,-97.0727,1.818,1111122 
TCOON,ioos:station:TCOON:009:1,2014-10-09T03:12:00Z,27.8398,-97.0727,1.812,1111122 
TCOON,ioos:station:TCOON:009:1,2014-10-09T04:12:00Z,27.8398,-97.0727,1.785,1111122 
TCOON,ioos:station:TCOON:009:1,2014-10-09T05:12:00Z,27.8398,-97.0727,1.784,1111122 
TCOON,ioos:station:TCOON:009:1,2014-10-09T06:12:00Z,27.8398,-97.0727,1.789,1111122 
TCOON,ioos:station:TCOON:009:1,2014-10-09T07:12:00Z,27.8398,-97.0727,1.819,1111122 
TCOON,ioos:station:TCOON:009:1,2014-10-09T08:12:00Z,27.8398,-97.0727,1.847,1111122 
TCOON,ioos:station:TCOON:009:1,2014-10-09T09:12:00Z,27.8398,-97.0727,1.844,1111122 
TCOON,ioos:station:TCOON:009:1,2014-10-09T10:12:00Z,27.8398,-97.0727,1.783,1111122 
TCOON,ioos:station:TCOON:009:1,2014-10-09T11:12:00Z,27.8398,-97.0727,1.757,1111122 
TCOON,ioos:station:TCOON:009:1,2014-10-09T12:12:00Z,27.8398,-97.0727,1.681,1111122 
TCOON,ioos:station:TCOON:009:1,2014-10-09T13:18:00Z,27.8398,-97.0727,1.626,1111122 
TCOON,ioos:station:TCOON:009:1,2014-10-09T14:12:00Z,27.8398,-97.0727,1.602,1111122 
TCOON,ioos:station:TCOON:009:1,2014-10-09T15:18:00Z,27.8398,-97.0727,1.589,1111122 
TCOON,ioos:station:TCOON:009:1,2014-10-09T16:24:00Z,27.8398,-97.0727,1.618,1111122 
TCOON,ioos:station:TCOON:009:1,2014-10-09T17:12:00Z,27.8398,-97.0727,1.622,1111122 
TCOON,ioos:station:TCOON:009:1,2014-10-09T18:18:00Z,27.8398,-97.0727,1.712,1111122 
TCOON,ioos:station:TCOON:009:1,2014-10-09T19:12:00Z,27.8398,-97.0727,1.779,1111122 
TCOON,ioos:station:TCOON:009:1,2014-10-09T20:12:00Z,27.8398,-97.0727,1.843,1111122 
TCOON,ioos:station:TCOON:009:1,2014-10-09T21:12:00Z,27.8398,-97.0727,1.849,1111122 
TCOON,ioos:station:TCOON:009:1,2014-10-09T22:48:00Z,27.8398,-97.0727,1.884,1111122 
TCOON,ioos:station:TCOON:009:1,2014-10-09T23:12:00Z,27.8398,-97.0727,1.894,1111122 
TCOON,ioos:station:TCOON:009:1,2014-10-10T00:12:00Z,27.8398,-97.0727,1.849,1111122 
TCOON,ioos:station:TCOON:009:1,2014-10-10T02:48:00Z,27.8398,-97.0727,1.864,1111122 
TCOON,ioos:station:TCOON:009:1,2014-10-10T03:12:00Z,27.8398,-97.0727,1.871,1111122 
TCOON,ioos:station:TCOON:009:1,2014-10-10T04:18:00Z,27.8398,-97.0727,1.869,1111122 
TCOON,ioos:station:TCOON:009:1,2014-10-10T05:12:00Z,27.8398,-97.0727,1.856,1111122 
TCOON,ioos:station:TCOON:009:1,2014-10-10T06:18:00Z,27.8398,-97.0727,1.874,1111122 
TCOON,ioos:station:TCOON:009:1,2014-10-10T07:12:00Z,27.8398,-97.0727,1.89,1111122 
TCOON,ioos:station:TCOON:009:1,2014-10-10T08:12:00Z,27.8398,-97.0727,1.899,1111122 
TCOON,ioos:station:TCOON:009:1,2014-10-10T09:12:00Z,27.8398,-97.0727,1.889,1111122 
TCOON,ioos:station:TCOON:009:1,2014-10-10T10:12:00Z,27.8398,-97.0727,1.837,1111122 
TCOON,ioos:station:TCOON:009:1,2014-10-10T11:12:00Z,27.8398,-97.0727,1.786,1111122 
TCOON,ioos:station:TCOON:009:1,2014-10-10T12:12:00Z,27.8398,-97.0727,1.701,1111122 
TCOON,ioos:station:TCOON:009:1,2014-10-10T13:12:00Z,27.8398,-97.0727,1.648,1111122 
TCOON,ioos:station:TCOON:009:1,2014-10-10T14:18:00Z,27.8398,-97.0727,1.614,1111122 
TCOON,ioos:station:TCOON:009:1,2014-10-10T15:12:00Z,27.8398,-97.0727,1.586,1111122 
TCOON,ioos:station:TCOON:009:1,2014-10-10T16:24:00Z,27.8398,-97.0727,1.584,1111122 
TCOON,ioos:station:TCOON:009:1,2014-10-10T17:12:00Z,27.8398,-97.0727,1.602,1111122 
TCOON,ioos:station:TCOON:009:1,2014-10-10T18:18:00Z,27.8398,-97.0727,1.622,1111122 
TCOON,ioos:station:TCOON:009:1,2014-10-10T19:12:00Z,27.8398,-97.0727,1.68,1111122 
TCOON,ioos:station:TCOON:009:1,2014-10-10T20:12:00Z,27.8398,-97.0727,1.763,1111122 
TCOON,ioos:station:TCOON:009:1,2014-10-10T21:12:00Z,27.8398,-97.0727,1.819,1111122 
TCOON,ioos:station:TCOON:009:1,2014-10-10T22:12:00Z,27.8398,-97.0727,1.853,1111122 
TCOON,ioos:station:TCOON:009:1,2014-10-10T23:12:00Z,27.8398,-97.0727,1.861,1111122 
TCOON,ioos:station:TCOON:009:1,2014-10-11T00:18:00Z,27.8398,-97.0727,1.853,1111122 
TCOON,ioos:station:TCOON:009:1,2014-10-11T01:30:00Z,27.8398,-97.0727,1.861,1111122 
TCOON,ioos:station:TCOON:009:1,2014-10-11T02:18:00Z,27.8398,-97.0727,1.867,1111122 
TCOON,ioos:station:TCOON:009:1,2014-10-11T03:12:00Z,27.8398,-97.0727,1.873,1111122 
TCOON,ioos:station:TCOON:009:1,2014-10-11T04:18:00Z,27.8398,-97.0727,1.89,1111122 
TCOON,ioos:station:TCOON:009:1,2014-10-11T05:12:00Z,27.8398,-97.0727,1.873,1111122 
TCOON,ioos:station:TCOON:009:1,2014-10-11T06:24:00Z,27.8398,-97.0727,1.869,1111122 
TCOON,ioos:station:TCOON:009:1,2014-10-11T07:42:00Z,27.8398,-97.0727,1.862,1111122 
TCOON,ioos:station:TCOON:009:1,2014-10-11T08:12:00Z,27.8398,-97.0727,1.879,1111122 
TCOON,ioos:station:TCOON:009:1,2014-10-11T09:18:00Z,27.8398,-97.0727,1.888,1111122 
TCOON,ioos:station:TCOON:009:1,2014-10-11T10:18:00Z,27.8398,-97.0727,1.854,1111122 
TCOON,ioos:station:TCOON:009:1,2014-10-11T11:12:00Z,27.8398,-97.0727,1.826,1111122 
TCOON,ioos:station:TCOON:009:1,2014-10-11T12:12:00Z,27.8398,-97.0727,1.774,1111122 
TCOON,ioos:station:TCOON:009:1,2014-10-11T13:12:00Z,27.8398,-97.0727,1.702,1111122 
TCOON,ioos:station:TCOON:009:1,2014-10-11T14:12:00Z,27.8398,-97.0727,1.63,1111122 
TCOON,ioos:station:TCOON:009:1,2014-10-11T15:12:00Z,27.8398,-97.0727,1.578,1111122 
TCOON,ioos:station:TCOON:009:1,2014-10-11T16:18:00Z,27.8398,-97.0727,1.584,1111122 
TCOON,ioos:station:TCOON:009:1,2014-10-11T17:12:00Z,27.8398,-97.0727,1.589,1111122 
TCOON,ioos:station:TCOON:009:1,2014-10-11T18:12:00Z,27.8398,-97.0727,1.575,1111122 
TCOON,ioos:station:TCOON:009:1,2014-10-11T19:12:00Z,27.8398,-97.0727,1.646,1111122 
TCOON,ioos:station:TCOON:009:1,2014-10-11T20:12:00Z,27.8398,-97.0727,1.707,1111122 
TCOON,ioos:station:TCOON:009:1,2014-10-11T21:12:00Z,27.8398,-97.0727,1.747,1111122 
TCOON,ioos:station:TCOON:009:1,2014-10-11T22:12:00Z,27.8398,-97.0727,1.815,1111122 
TCOON,ioos:station:TCOON:009:1,2014-10-11T23:12:00Z,27.8398,-97.0727,1.864,1111122 
TCOON,ioos:station:TCOON:009:1,2014-10-12T00:12:00Z,27.8398,-97.0727,1.866,1111122 
TCOON,ioos:station:TCOON:009:1,2014-10-12T01:18:00Z,27.8398,-97.0727,1.868,1111122 
TCOON,ioos:station:TCOON:009:1,2014-10-12T02:12:00Z,27.8398,-97.0727,1.862,1111122 
TCOON,ioos:station:TCOON:009:1,2014-10-12T03:12:00Z,27.8398,-97.0727,1.873,1111122 
TCOON,ioos:station:TCOON:009:1,2014-10-12T04:24:00Z,27.8398,-97.0727,1.895,1111122 
TCOON,ioos:station:TCOON:009:1,2014-10-12T05:12:00Z,27.8398,-97.0727,1.885,1111122 
TCOON,ioos:station:TCOON:009:1,2014-10-12T07:00:00Z,27.8398,-97.0727,1.866,1111122 
TCOON,ioos:station:TCOON:009:1,2014-10-12T07:12:00Z,27.8398,-97.0727,1.846,1111122 
TCOON,ioos:station:TCOON:009:1,2014-10-12T08:12:00Z,27.8398,-97.0727,1.831,1111122 
TCOON,ioos:station:TCOON:009:1,2014-10-12T09:18:00Z,27.8398,-97.0727,1.864,1111122 
TCOON,ioos:station:TCOON:009:1,2014-10-12T10:12:00Z,27.8398,-97.0727,1.859,1111122 
TCOON,ioos:station:TCOON:009:1,2014-10-12T11:12:00Z,27.8398,-97.0727,1.823,1111122 
TCOON,ioos:station:TCOON:009:1,2014-10-12T12:12:00Z,27.8398,-97.0727,1.777,1111122 
TCOON,ioos:station:TCOON:009:1,2014-10-12T13:12:00Z,27.8398,-97.0727,1.742,1111122 
TCOON,ioos:station:TCOON:009:1,2014-10-12T14:12:00Z,27.8398,-97.0727,1.682,1111122 
TCOON,ioos:station:TCOON:009:1,2014-10-12T15:12:00Z,27.8398,-97.0727,1.641,1111122 
TCOON,ioos:station:TCOON:009:1,2014-10-12T16:12:00Z,27.8398,-97.0727,1.616,1111122 
TCOON,ioos:station:TCOON:009:1,2014-10-12T17:12:00Z,27.8398,-97.0727,1.571,1111122 
TCOON,ioos:station:TCOON:009:1,2014-10-12T18:12:00Z,27.8398,-97.0727,1.584,1111122 
TCOON,ioos:station:TCOON:009:1,2014-10-12T19:12:00Z,27.8398,-97.0727,1.606,1111122 
TCOON,ioos:station:TCOON:009:1,2014-10-12T20:18:00Z,27.8398,-97.0727,1.663,1111122 
TCOON,ioos:station:TCOON:009:1,2014-10-12T21:12:00Z,27.8398,-97.0727,1.749,1111122 
TCOON,ioos:station:TCOON:009:1,2014-10-12T22:12:00Z,27.8398,-97.0727,1.782,1111122 